CDT,Max TemperatureF,Mean TemperatureF,Min TemperatureF,Max Dew PointF,MeanDew PointF,Min DewpointF,Max Humidity, Mean Humidity, Min Humidity, Max Sea Level PressureIn, Mean Sea Level PressureIn, Min Sea Level PressureIn, Max VisibilityMiles, Mean VisibilityMiles, Min VisibilityMiles, Max Wind SpeedMPH, Mean Wind SpeedMPH, Max Gust SpeedMPH,PrecipitationIn, CloudCover, Events, WindDirDegrees
2013-6-1,65,55,45,44,38,31,90,62,28,30.21,30.14,30.00,10,10,4,33,22,41,0.00,4,Rain,338
2013-6-2,80,60,40,41,38,34,86,49,20,30.22,30.04,29.85,10,10,10,22,9,31,0.00,0,,166
2013-6-3,89,69,49,50,40,28,79,43,12,29.91,29.79,29.74,10,10,10,23,14,36,0.01,1,Rain-Thunderstorm,280
2013-6-4,72,58,45,52,44,40,90,64,32,30.21,30.05,29.92,10,10,4,20,10,26,0.20,2,Rain-Thunderstorm,13
2013-6-5,64,54,43,46,42,38,91,68,40,30.24,30.18,30.12,10,10,10,18,10,22,0.12,6,Rain,21
2013-6-6,75,60,44,51,41,33,91,58,22,30.15,30.10,30.04,10,10,10,17,8,28,0.00,0,,83
2013-6-7,80,64,48,52,46,39,88,54,25,30.13,30.00,29.80,10,10,7,17,7,26,0.03,1,Rain,190
2013-6-8,74,64,53,52,44,34,84,52,25,30.03,29.88,29.71,10,10,7,29,15,39,0.03,2,Rain,350
2013-6-9,84,64,45,48,42,38,84,47,20,30.05,30.00,29.93,10,10,10,12,6,20,0.00,0,,188
2013-6-10,95,74,52,46,40,30,71,33,10,29.94,29.90,29.85,10,10,10,25,10,31,0.00,0,,180
2013-6-11,93,75,57,58,51,35,82,46,22,29.95,29.87,29.80,10,10,10,17,7,24,0.00,0,Thunderstorm,52
2013-6-12,86,71,56,59,43,23,85,41,12,30.16,30.10,29.96,10,10,10,24,10,32,0.00,0,,4
2013-6-13,82,66,49,53,50,44,95,63,32,30.19,30.08,29.94,10,10,7,24,12,32,0.00,1,,139
2013-6-14,88,74,61,54,45,30,72,40,13,30.05,29.96,29.89,10,10,10,23,15,36,0.00,1,Rain-Thunderstorm,94
2013-6-15,78,66,53,54,51,37,84,62,26,30.12,30.07,30.00,10,10,5,18,9,25,0.01,2,Rain-Thunderstorm,28
2013-6-16,90,72,54,59,46,23,94,54,9,30.12,30.07,30.02,10,10,5,20,8,29,0.00,1,,145
2013-6-17,80,64,48,56,50,45,97,67,30,30.25,30.15,30.08,10,7,0,24,9,31,0.00,3,Fog-Rain-Thunderstorm,100
2013-6-18,87,69,51,54,48,36,88,53,21,30.24,30.08,29.93,10,10,5,25,12,32,0.19,2,Rain-Thunderstorm,143
2013-6-19,92,74,55,59,52,30,90,57,11,30.05,29.87,29.74,10,10,10,36,15,48,0.00,0,Thunderstorm,160
2013-6-20,87,72,57,62,42,21,94,44,10,29.94,29.88,29.78,10,10,5,29,14,41,0.00,0,,48
2013-6-21,86,74,61,62,57,41,93,64,33,29.93,29.88,29.82,10,9,3,26,10,33,0.00,0,Thunderstorm,18
2013-6-22,81,68,54,61,53,46,86,64,42,30.01,29.92,29.77,10,10,10,30,14,37,0.00,3,Rain-Thunderstorm,64
2013-6-23,83,67,51,55,47,36,91,55,20,30.05,29.97,29.88,10,10,10,32,11,46,0.00,0,,4
2013-6-24,91,76,60,58,44,30,68,36,13,29.94,29.83,29.74,10,10,10,28,18,37,0.00,1,Thunderstorm,186
2013-6-25,89,76,62,65,44,32,94,41,13,30.00,29.90,29.82,10,9,3,29,10,39,0.00,1,,309
2013-6-26,97,77,57,43,36,32,49,25,10,30.10,30.05,30.00,10,10,10,17,8,24,0.00,0,,232
2013-6-27,92,78,63,55,44,35,65,34,16,30.27,30.18,30.07,10,10,10,24,11,30,0.00,0,,357
2013-6-28,91,75,59,54,50,47,78,42,22,30.30,30.26,30.19,10,10,10,18,8,24,0.00,0,,90
2013-6-29,88,72,57,51,47,41,71,42,20,30.29,30.22,30.14,10,10,10,16,6,22,0.00,1,,59
2013-6-30,82,69,56,50,46,43,69,46,26,30.26,30.23,30.19,10,10,10,15,6,16,0.00,3,Rain,133